Weather History for Greensboro, NC

Change the Weather History Date:

Tuesday, February 11, 2014

  Actual Average Record
Temperature  
Mean Temperature 30 °F 42 °F  
Max Temperature 35 °F 52 °F 78 °F (1932)
Min Temperature 24 °F 32 °F 2 °F (1936)
Degree Days  
Heating Degree Days 35 23  
Month to date heating degree days 260 267  
Since 1 July heating degree days 2598 2490  
Cooling Degree Days 0 0  
Month to date cooling degree days 0 0  
Year to date cooling degree days 0 0  
Moisture  
Dew Point 18 °F    
Average Humidity 70    
Maximum Humidity 89    
Minimum Humidity 50    
Precipitation  
Precipitation 0.00 in 0.10 in 1.50 in (1908)
Month to date precipitation 0.46 1.08  
Year to date precipitation 4.44 4.14  
Snow  
Snow 0.00 in 0.10 in 1.10 in (1983)
Month to date snowfall T 1.0  
Since 1 July snowfall 1.6 5.3  
Snow Depth 0.00 in    
Sea Level Pressure  
Sea Level Pressure 30.30 in    
Wind  
Wind Speed 7 mph (NE)    
Max Wind Speed 14 mph    
Max Gust Speed 16 mph    
Visibility 10 miles    
Events      
T = Trace of Precipitation, MM = Missing Value Source: NWS Daily Summary

Daily Weather History Graph

Daily Weather History Graph

Search for Another Location

Airport:

Trip Planner

Search our weather history database for the weather conditions in past years. The results will help you decide how hot, cold, wet, or windy it might be!

Date:

Astronomy

Feb. 11, 2014 Rise Set
Actual Time 7:11 AM EST 5:57 PM EST
Civil Twilight 6:45 AM EST 6:23 PM EST
Nautical Twilight 6:14 AM EST 6:53 PM EST
Astronomical Twilight 5:44 AM EST 7:23 PM EST
Moon 3:18 PM EST (2/11) 4:44 AM EST (2/11)
Length of Visible Light 11h 38m
Length of Day
10h 45m
Waxing Gibbous, 90% of the Moon is Illuminated
Feb 11
Waxing Gibbous
Feb 14
Full
Feb 22
Last Quarter
Mar 1
New
Mar 8
First Quarter

Hourly Weather History & Observations

Time (EST) Temp. Windchill Dew Point Humidity Pressure Visibility Wind Dir Wind Speed Gust Speed Precip Events Conditions
12:54 AM 34.0 °F 31.0 °F 30.0 °F 85% 30.23 in 8.0 mi NE 3.5 mph - N/A   Mostly Cloudy
1:54 AM 33.1 °F 26.1 °F 21.0 °F 61% 30.24 in 10.0 mi NE 8.1 mph - N/A   Overcast
2:54 AM 32.0 °F 25.6 °F 17.1 °F 54% 30.24 in 10.0 mi NE 6.9 mph - N/A   Overcast
3:54 AM 30.0 °F 24.1 °F 15.1 °F 54% 30.24 in 10.0 mi NNE 5.8 mph - N/A   Overcast
4:54 AM 28.9 °F 22.8 °F 12.9 °F 51% 30.26 in 10.0 mi NNE 5.8 mph - N/A   Overcast
5:39 AM 28.4 °F 21.2 °F 15.8 °F 59% 30.24 in 10.0 mi NNE 6.9 mph - N/A   Mostly Cloudy
5:54 AM 28.0 °F 20.0 °F 17.1 °F 63% 30.26 in 10.0 mi NNE 8.1 mph - N/A   Overcast
6:54 AM 28.0 °F 19.3 °F 19.0 °F 69% 30.30 in 10.0 mi NNE 9.2 mph - N/A   Overcast
7:33 AM 28.4 °F 19.7 °F 19.4 °F 69% 30.27 in 8.0 mi NNE 9.2 mph - N/A   Overcast
7:54 AM 28.9 °F 20.4 °F 19.9 °F 69% 30.30 in 8.0 mi NNE 9.2 mph - N/A   Overcast
8:30 AM 28.4 °F 18.5 °F 19.4 °F 69% 30.29 in 8.0 mi NE 11.5 mph - N/A   Overcast
8:54 AM 28.9 °F 21.1 °F 19.9 °F 69% 30.32 in 8.0 mi NE 8.1 mph - N/A   Overcast
9:54 AM 30.0 °F 21.1 °F 21.0 °F 69% 30.33 in 9.0 mi NE 10.4 mph - N/A   Overcast
10:54 AM 30.9 °F 21.7 °F 21.0 °F 67% 30.34 in 9.0 mi NE 11.5 mph - N/A   Overcast
11:54 AM 32.0 °F 24.8 °F 19.0 °F 59% 30.33 in 10.0 mi NE 8.1 mph - N/A   Overcast
12:28 PM 33.8 °F 27.0 °F 19.4 °F 56% 30.30 in 10.0 mi ENE 8.1 mph - N/A   Overcast
12:54 PM 33.1 °F 26.1 °F 19.0 °F 56% 30.31 in 10.0 mi ENE 8.1 mph 16.1 mph N/A   Overcast
1:54 PM 33.1 °F 27.7 °F 18.0 °F 54% 30.30 in 10.0 mi NE 5.8 mph - N/A   Overcast
2:54 PM 34.0 °F 29.8 °F 18.0 °F 52% 30.29 in 10.0 mi Variable 4.6 mph - N/A   Overcast
3:54 PM 34.0 °F 31.0 °F 18.0 °F 52% 30.30 in 10.0 mi Variable 3.5 mph - N/A   Mostly Cloudy
4:54 PM 33.1 °F 27.7 °F 18.0 °F 54% 30.30 in 10.0 mi East 5.8 mph - N/A   Mostly Cloudy
5:54 PM 30.9 °F 23.5 °F 17.1 °F 57% 30.32 in 10.0 mi East 8.1 mph - N/A   Mostly Cloudy
6:54 PM 28.9 °F 22.8 °F 16.0 °F 58% 30.33 in 10.0 mi ENE 5.8 mph - N/A   Mostly Cloudy
7:54 PM 28.0 °F 22.8 °F 15.1 °F 58% 30.35 in 10.0 mi East 4.6 mph - N/A   Mostly Cloudy
8:54 PM 26.1 °F 19.4 °F 14.0 °F 60% 30.37 in 10.0 mi ENE 5.8 mph - N/A   Partly Cloudy
9:54 PM 26.1 °F 20.5 °F 14.0 °F 60% 30.38 in 10.0 mi ENE 4.6 mph - N/A   Partly Cloudy
10:54 PM 25.0 °F 19.3 °F 14.0 °F 63% 30.38 in 10.0 mi ENE 4.6 mph - N/A   Partly Cloudy
11:54 PM 25.0 °F 17.1 °F 14.0 °F 63% 30.37 in 10.0 mi ENE 6.9 mph - N/A   Partly Cloudy